Bellefontaine, OH

8:22 AM EST on December 11, 2016 (GMT -0500)
Bellefontaine

Weather History for KEDJ - May, 2013

Change the Weather History Date:

Monday, May 27, 2013

  Actual Average (KDAY) Record (KDAY)
Temperature  
Mean Temperature 58 °F -  
Max Temperature 69 °F 75 °F 95 °F (1911)
Min Temperature 48 °F 53 °F 33 °F (1961)
Degree Days  
Heating Degree Days 6    
Growing Degree Days 8 (Base 50)    
Moisture  
Dew Point 46 °F    
Average Humidity 64    
Maximum Humidity 100    
Minimum Humidity 36    
Precipitation  
Precipitation 0.07 in - - ()
Sea Level Pressure  
Sea Level Pressure 30.11 in    
Wind  
Wind Speed 10 mph (SE)    
Max Wind Speed 21 mph    
Max Gust Speed 26 mph    
Visibility 10 miles    
Events      
Averages and records for this station are not official NWS values.
T = Trace of Precipitation, MM = Missing Value Source: NWS Daily Summary

Daily Weather History Graph

Daily Weather History Graph

Search for Another Location

Airport or City:

Trip Planner

Search our weather history database for the weather conditions in past years. The results will help you decide how hot, cold, wet, or windy it might be!

Date:

Astronomy

May. 27, 2013 Rise Set
Actual Time 6:09 AM EDT 8:55 PM EDT
Civil Twilight 5:37 AM EDT 9:27 PM EDT
Nautical Twilight 4:57 AM EDT 10:08 PM EDT
Astronomical Twilight 4:11 AM EDT 10:54 PM EDT
Moon 11:33 PM EDT (5/27) 8:46 AM EDT (5/27)
Length of Visible Light 15h 49m
Length of Day
14h 45m
Waning Gibbous, 91% of the Moon is Illuminated
May 27
Waning Gibbous
May 31
Last Quarter
Jun 8
New
Jun 16
First Quarter
Jun 23
Full

Hourly Weather History & Observations

Time (EDT) Temp. Dew Point Humidity Pressure Visibility Wind Dir Wind Speed Gust Speed Precip Events Conditions
12:05 AM 57.2 °F 30.2 °F 36% 30.23 in 10.0 mi East 5.8 mph - 0.00 in   Clear
12:25 AM 57.2 °F 30.2 °F 36% 30.23 in 10.0 mi East 9.2 mph - 0.00 in   Clear
12:45 AM 57.2 °F 30.2 °F 36% 30.23 in 10.0 mi East 8.1 mph - 0.00 in   Clear
1:05 AM 57.2 °F 30.2 °F 36% 30.23 in 10.0 mi East 6.9 mph - 0.00 in   Clear
1:25 AM 57.2 °F 30.2 °F 36% 30.22 in 10.0 mi East 5.8 mph - 0.00 in   Clear
1:45 AM 57.2 °F 30.2 °F 36% 30.22 in 10.0 mi ESE 8.1 mph - 0.00 in   Clear
2:05 AM 57.2 °F 30.2 °F 36% 30.21 in 10.0 mi East 6.9 mph - 0.00 in   Clear
2:25 AM 55.4 °F 32.0 °F 41% 30.20 in 10.0 mi ESE 8.1 mph - 0.00 in   Partly Cloudy
2:45 AM 55.4 °F 32.0 °F 41% 30.19 in 10.0 mi ESE 8.1 mph - 0.00 in   Scattered Clouds
3:05 AM 55.4 °F 32.0 °F 41% 30.19 in 10.0 mi ESE 8.1 mph - 0.00 in   Scattered Clouds
3:25 AM 55.4 °F 32.0 °F 41% 30.19 in 10.0 mi ESE 6.9 mph - 0.00 in   Partly Cloudy
3:45 AM 55.4 °F 32.0 °F 41% 30.19 in 10.0 mi ESE 6.9 mph - 0.00 in   Partly Cloudy
4:05 AM 55.4 °F 32.0 °F 41% 30.19 in 10.0 mi SE 6.9 mph - 0.00 in   Partly Cloudy
4:25 AM 55.4 °F 33.8 °F 44% 30.20 in 10.0 mi SE 5.8 mph - 0.00 in   Scattered Clouds
4:45 AM 53.6 °F 35.6 °F 51% 30.20 in 10.0 mi SE 5.8 mph - 0.00 in   Partly Cloudy
5:05 AM 53.6 °F 37.4 °F 54% 30.20 in 10.0 mi SE 6.9 mph - 0.00 in   Mostly Cloudy
5:25 AM 53.6 °F 37.4 °F 54% 30.20 in 10.0 mi ESE 8.1 mph - 0.00 in   Mostly Cloudy
5:45 AM 53.6 °F 35.6 °F 51% 30.21 in 10.0 mi SE 8.1 mph - 0.00 in   Overcast
6:05 AM 51.8 °F 39.2 °F 62% 30.22 in 9.0 mi SE 5.8 mph - 0.00 in   Overcast
6:25 AM 51.8 °F 42.8 °F 71% 30.22 in 10.0 mi SE 4.6 mph - 0.00 in   Overcast
6:45 AM 51.8 °F 41.0 °F 67% 30.22 in 10.0 mi ESE 5.8 mph - 0.00 in   Overcast
7:05 AM 51.8 °F 42.8 °F 71% 30.22 in 9.0 mi ESE 6.9 mph - 0.00 in   Overcast
7:25 AM 50.0 °F 42.8 °F 76% 30.21 in 10.0 mi ESE 6.9 mph - 0.00 in   Overcast
7:45 AM 50.0 °F 42.8 °F 76% 30.22 in 9.0 mi SE 5.8 mph - 0.00 in   Overcast
8:05 AM 50.0 °F 44.6 °F 82% 30.22 in 10.0 mi SE 6.9 mph - 0.00 in   Overcast
8:25 AM 50.0 °F 44.6 °F 82% 30.21 in 8.0 mi ESE 5.8 mph - 0.00 in   Overcast
8:45 AM 50.0 °F 44.6 °F 82% 30.21 in 10.0 mi ESE 5.8 mph - 0.00 in   Overcast
9:05 AM 51.8 °F 44.6 °F 76% 30.21 in 10.0 mi SE 8.1 mph - 0.00 in   Overcast
9:25 AM 51.8 °F 44.6 °F 76% 30.21 in 5.0 mi SE 6.9 mph - 0.00 in   Overcast
9:45 AM 50.0 °F 48.2 °F 94% 30.21 in 5.0 mi SE 8.1 mph - 0.03 in   Overcast
10:05 AM 50.0 °F 48.2 °F 94% 30.20 in 3.0 mi SE 12.7 mph - 0.01 in   Overcast
10:25 AM 48.2 °F 48.2 °F 100% 30.19 in 7.0 mi SE 10.4 mph - 0.02 in   Overcast
10:45 AM 48.2 °F 48.2 °F 100% 30.18 in 7.0 mi ESE 10.4 mph - 0.02 in   Overcast
11:05 AM 50.0 °F 50.0 °F 100% 30.17 in 10.0 mi SE 13.8 mph 19.6 mph 0.00 in   Overcast
11:25 AM 51.8 °F 50.0 °F 94% 30.16 in 10.0 mi SE 18.4 mph 21.9 mph 0.00 in   Mostly Cloudy
11:45 AM 53.6 °F 51.8 °F 94% 30.16 in 10.0 mi SE 16.1 mph - 0.00 in   Mostly Cloudy
12:05 PM 55.4 °F 53.6 °F 94% 30.15 in 10.0 mi SE 13.8 mph 25.3 mph 0.00 in   Scattered Clouds
12:25 PM 57.2 °F 51.8 °F 82% 30.14 in 10.0 mi SE 17.3 mph 21.9 mph 0.00 in   Partly Cloudy
12:45 PM 57.2 °F 51.8 °F 82% 30.13 in 10.0 mi SE 16.1 mph 23.0 mph 0.00 in   Partly Cloudy
1:05 PM 60.8 °F 51.8 °F 72% 30.12 in 10.0 mi SE 16.1 mph 23.0 mph 0.00 in   Clear
1:25 PM 60.8 °F 51.8 °F 72% 30.10 in 10.0 mi SE 20.7 mph - 0.00 in   Clear
1:45 PM 62.6 °F 51.8 °F 68% 30.11 in 10.0 mi SE 18.4 mph 25.3 mph 0.00 in   Partly Cloudy
2:05 PM 64.4 °F 51.8 °F 64% 30.09 in 10.0 mi SE 20.7 mph 26.5 mph 0.00 in   Clear
2:25 PM 66.2 °F 51.8 °F 60% 30.09 in 10.0 mi SE 16.1 mph 23.0 mph 0.00 in   Clear
2:45 PM 66.2 °F 50.0 °F 56% 30.09 in 10.0 mi SE 16.1 mph 23.0 mph 0.00 in   Clear
3:05 PM 68.0 °F 50.0 °F 52% 30.07 in 10.0 mi SE 19.6 mph 24.2 mph 0.00 in   Clear
3:25 PM 69.8 °F 50.0 °F 49% 30.06 in 10.0 mi SE 20.7 mph 26.5 mph 0.00 in   Clear
3:45 PM 68.0 °F 51.8 °F 56% 30.06 in 10.0 mi SE 18.4 mph 24.2 mph 0.00 in   Clear
4:05 PM 68.0 °F 51.8 °F 56% 30.05 in 10.0 mi SE 18.4 mph 21.9 mph 0.00 in   Clear
4:25 PM 68.0 °F 50.0 °F 52% 30.04 in 10.0 mi SE 15.0 mph 21.9 mph 0.00 in   Clear
4:45 PM 66.2 °F 51.8 °F 60% 30.04 in 10.0 mi SE 13.8 mph 20.7 mph 0.00 in   Partly Cloudy
5:05 PM 68.0 °F 51.8 °F 56% 30.02 in 10.0 mi SE 16.1 mph - 0.00 in   Partly Cloudy
5:25 PM 69.8 °F 51.8 °F 53% 30.01 in 10.0 mi SE 15.0 mph 19.6 mph 0.00 in   Clear
5:45 PM 69.8 °F 51.8 °F 53% 30.00 in 10.0 mi SE 15.0 mph - 0.00 in   Clear
6:05 PM 69.8 °F 51.8 °F 53% 29.98 in 10.0 mi SE 13.8 mph 21.9 mph 0.00 in   Clear
6:25 PM 69.8 °F 51.8 °F 53% 29.98 in 10.0 mi SE 18.4 mph 23.0 mph 0.00 in   Clear
6:45 PM 68.0 °F 50.0 °F 52% 29.98 in 10.0 mi ESE 11.5 mph 19.6 mph 0.00 in   Clear
7:05 PM 66.2 °F 50.0 °F 56% 29.97 in 10.0 mi SE 13.8 mph - 0.00 in   Clear
7:25 PM 66.2 °F 51.8 °F 60% 29.97 in 10.0 mi SE 11.5 mph 17.3 mph 0.00 in   Clear
7:45 PM 66.2 °F 51.8 °F 60% 29.97 in 10.0 mi SE 10.4 mph 17.3 mph 0.00 in   Clear
8:05 PM 64.4 °F 51.8 °F 64% 29.97 in 10.0 mi ESE 11.5 mph - 0.00 in   Scattered Clouds
8:25 PM 62.6 °F 53.6 °F 72% 29.97 in 9.0 mi SE 15.0 mph - 0.01 in   Mostly Cloudy
8:45 PM 62.6 °F 53.6 °F 72% 29.97 in 10.0 mi SE 12.7 mph - 0.01 in   Mostly Cloudy
9:05 PM 62.6 °F 53.6 °F 72% 29.96 in 10.0 mi SE 11.5 mph - 0.00 in   Partly Cloudy
9:25 PM 62.6 °F 53.6 °F 72% 29.97 in 10.0 mi SE 10.4 mph - 0.00 in   Partly Cloudy
9:45 PM 62.6 °F 53.6 °F 72% 29.97 in 10.0 mi SE 10.4 mph - 0.00 in   Mostly Cloudy
10:05 PM 62.6 °F 53.6 °F 72% 29.97 in 10.0 mi SSE 10.4 mph - 0.00 in   Mostly Cloudy
10:25 PM 62.6 °F 55.4 °F 77% 29.97 in 10.0 mi SE 9.2 mph - 0.00 in   Mostly Cloudy
10:45 PM 62.6 °F 55.4 °F 77% 29.98 in 10.0 mi SE 9.2 mph - 0.00 in   Scattered Clouds
11:05 PM 60.8 °F 57.2 °F 88% 29.97 in 5.0 mi ESE 8.1 mph - 0.00 in   Mostly Cloudy
11:25 PM 60.8 °F 55.4 °F 82% 29.97 in 10.0 mi ESE 6.9 mph - 0.01 in   Overcast
11:45 PM 62.6 °F 55.4 °F 77% 29.97 in 10.0 mi SE 5.8 mph - 0.01 in   Mostly Cloudy